Home > Weather > Caguas > Past weeks

Flag for Puerto Rico Past Weather in Caguas, Puerto Rico — Yesterday and Last 2 Weeks

Now
82 °F

Passing clouds.


Feels Like: 88 °F
Forecast: 77 / 87 °F
Wind: 6 mph from Southeast

Location: Luis Munoz Marin

Current Time: Aug 24, 2016 at 9:18:08 PM

Latest Report: Aug 24, 2016 at 8:56 PM


Visibility: 10 mi

Pressure: 29.91 "Hg

Humidity: 77%

Dew Point: 74 °F

Location of CaguasLocation

Past Weather in Caguas — Graph

°F

Caguas Temperature Yesterday

Maximum temperature yesterday: 88 °F (at 1:56 PM)
Minimum temperature yesterday: 78 °F (at 5:56 AM)
Average temperature yesterday: 83 °F

High & Low Weather Summary for the Past Weeks

 TemperatureHumidityPressure
High91 °F (Aug 18, 12:56 PM)100% (Aug 24, 12:56 AM)30.07 "Hg (Aug 24, 12:56 AM)
Low76 °F (Aug 14, 4:56 AM)60% (Aug 18, 2:56 PM)29.82 "Hg (Aug 24, 4:56 PM)
Average83 °F81%29.99 "Hg
* Reported Aug 9 7:56 PM — Aug 24 7:56 PM, Caguas, Weather by CustomWeather, © 2016

Note: Actual official high and low records may vary slightly from our data, if they occured in-between our weather recording intervals... More about our weather records

Advertising

Caguas Weather History for the Previous 24 Hours

Scroll right to see more
 ConditionsComfort  
Time TempWeatherWind HumidityBarometerVisibility
7:56 PM
Wed, Aug 24
82 °FPassing clouds.9 mph77%29.89 "Hg10 mi
6:56 PM81 °FBroken clouds.7 mph82%29.87 "Hg10 mi
5:56 PM82 °FBroken clouds.6 mph79%29.82 "Hg10 mi
4:56 PM80 °FLight rain. Broken clouds.3 mph96%29.82 "Hg10 mi
3:56 PM79 °FRain. Fog.6 mph97%29.83 "Hg3 mi
2:56 PM82 °FCloudy.9 mph85%29.82 "Hg10 mi
1:56 PM80 °FLight rain. Broken clouds.No wind96%29.85 "Hg10 mi
12:56 PM82 °FLight rain. Broken clouds.9 mph94%29.85 "Hg9 mi
11:56 AM80 °FLight rain. Partly sunny.8 mph96%29.88 "Hg10 mi
10:56 AM85 °FBroken clouds.3 mph80%29.88 "Hg10 mi
9:56 AM84 °FBroken clouds.No wind83%29.88 "Hg10 mi
8:56 AM82 °FBroken clouds.No wind91%29.89 "Hg10 mi
7:56 AM79 °FLight rain. Fog.3 mph97%29.89 "Hg6 mi
6:56 AM80 °FPartly cloudy.No wind87%29.88 "Hg10 mi
5:56 AM79 °FPassing clouds.No wind94%29.86 "Hg10 mi
4:56 AM79 °FPassing clouds.3 mph94%29.86 "Hg10 mi
3:56 AM78 °FPassing clouds.No wind96%29.86 "Hg10 mi
2:56 AM78 °FPassing clouds.5 mph96%29.86 "Hg10 mi
1:56 AM78 °FPassing clouds.6 mph100%29.88 "Hg10 mi
12:56 AM78 °FPartly cloudy.6 mph100%29.90 "Hg10 mi
11:56 PM
Tue, Aug 23
80 °FRain. Mostly cloudy.7 mph94%29.93 "Hg9 mi
10:56 PM83 °FPartly cloudy.6 mph79%29.93 "Hg10 mi
9:56 PM82 °FPartly cloudy.15 mph85%29.95 "Hg10 mi
Weather by CustomWeather, © 2016

See weather overviewHow to use our weather pages